Regional Weather Roundup
Issued by NWS

Home | Current Version | Previous Version | Graphics & Text | Print | Product List | Glossary On
Versions: 1 2 3 4 5 6 7 8 9 10 11 12 13 14 15 16 17 18 19 20 21 22 23 24 25 26 27 28 29 30 31 32 33 34 35 36 37 38 39 40 41 42 43 44 45 46 47 48 49 50
000
ASUS43 KDMX 242001
RWRIA

WEATHER ROUNDUP FOR IOWA
NATIONAL WEATHER SERVICE DES MOINES IA
300 PM CDT FRI MAR 24 2017

NOTE: "FAIR" INDICATES FEW OR NO CLOUDS BELOW 12,000 FEET WITH NO
SIGNIFICANT WEATHER AND/OR OBSTRUCTIONS TO VISIBILITY.

* - THESE STATIONS ARE NOT NWS STATIONS...THUS NOT UNDER NWS
QUALITY CONTROL.  THEY ALSO DO NOT REPORT WEATHER SUCH
AS PRECIPITATION OR FOG.

IAZ001>003-012>014-020>022-031>034-043>046-242100-
   NORTHWEST IOWA

CITY           SKY/WX    TMP DP  RH WIND       PRES   REMARKS
CARROLL *      MIX PCPN  43  43 100 N18       29.95F
CHEROKEE *     CLOUDY    41  39  94 NE14      30.01S
LE MARS *      CLOUDY    41  39  93 N16G23    30.03S
ORANGE CITY *  CLOUDY    39  39 100 N15       30.02S WCI  31
SHELDON *      CLOUDY    41  41 100 N18G25    30.01S
SIOUX CITY     CLOUDY    41  39  93 NE15      30.02S
SPENCER        CLOUDY    41  39  93 N17       30.01S
STORM LAKE *   CLOUDY    39  39 100 N16G23    29.99R FOG     WCI  30
$$

IAZ055>058-069>071-079>083-090>094-242100-
   SOUTHWEST IOWA

CITY           SKY/WX    TMP DP  RH WIND       PRES   REMARKS
ATLANTIC *     CLOUDY    48  46  93 NE15      29.92F
AUDUBON *      CLOUDY    45  41  87 N14       29.95F FOG
CLARINDA *     CLOUDY    64  55  72 E5        29.87F
COUNCIL BLFS * CLOUDY    46  46 100 N21G26    29.91F
CRESTON *      CLOUDY    50  50 100 NE14      29.91F FOG
HARLAN  *      PTSUNNY   45  45 100 N16G23    29.96F FOG
LAMONI         LGT RAIN  57  55  93 SE3       29.88F
RED OAK *      CLOUDY    52  50  93 NE16      29.90S
SHENANDOAH *   CLOUDY    55  52  88 N16       29.88S
$$

IAZ047>049-059>061-072>074-084-242100-
   CENTRAL IOWA

CITY           SKY/WX    TMP DP  RH WIND       PRES   REMARKS
AMES           CLOUDY    47  46  97 N14       29.93F FOG
ANKENY *       CLOUDY    48  46  93 VRB6      29.94S FOG
BOONE *        CLOUDY    46  46 100 N15       29.93S
CHARITON *     LGT RAIN  55  54  94 SW7       29.92S
DES MOINES     LGT RAIN  49  47  93 N6        29.94R FOG
GRINNELL*      HVY RAIN  49  47  93 CALM      29.91F
KNOXVILLE *    LGT RAIN  52  50  93 CALM      29.91R
MARSHALLTOWN   LGT RAIN  48  44  86 N12       29.91F
NEWTON *       CLOUDY    50  48  93 N6        29.91R FOG
PELLA *        LGT RAIN  51  50  97 CALM      29.94R
PERRY *        CLOUDY    48  45  90 N12       29.94S
$$

IAZ004>006-015-016-023>025-035-036-242100-
   NORTH CENTRAL IOWA

CITY           SKY/WX    TMP DP  RH WIND       PRES   REMARKS
ALGONA *       PTSUNNY   41  41 100 N24       29.99S FOG
CLARION *      CLOUDY    43  43 100 N17       29.97R
ESTHERVILLE    CLOUDY    39  39 100 N20G26    30.00F FOG     WCI  29
FORT DODGE *   CLOUDY    43  37  81 N9        29.99R
MASON CITY     CLOUDY    43  40  89 N14G29    29.99R
FOREST CITY *  CLOUDY    41  41 100 N15       29.99S
WEBSTER CITY * CLOUDY    45  41  87 N16       29.94R
IOWA FALLS *   CLOUDY    46  42  88 N12       29.96R
$$

IAZ007>011-017>019-026>030-037>042-050>054-066-242100-
   NORTHEAST IOWA

CITY           SKY/WX    TMP DP  RH WIND       PRES   REMARKS
CEDAR RAPIDS   LGT RAIN  53  52  96 NW14      29.91R FOG
CHARLES CITY * CLOUDY    43  43 100 N15       29.97R
CLINTON *      CLOUDY    75  45  34 W20       29.88R
DECORAH *      CLOUDY    43  41  93 NE8G18    29.95R
DUBUQUE        CLOUDY    60  48  64 N10       29.89S
MONTICELLO *   CLOUDY    59  50  72 N7G13     29.90R
OELWEIN *      CLOUDY    48  45  87 N14G20    29.93S
WATERLOO       PTSUNNY   48  42  80 N14       29.93F
$$

IAZ064-065-067-068-078-242100-
   EAST CENTRAL IOWA

CITY           SKY/WX    TMP DP  RH WIND       PRES   REMARKS
DAVENPORT      CLOUDY    75  41  29 SW16G25   29.89S
IOWA CITY      CLOUDY    68  49  50 NW13G22   29.90R
MUSCATINE *    CLOUDY    72  45  37 SW22      29.90R
QUAD CITIES    CLOUDY    75  41  29 SW20      29.88S
$$

IAZ062-063-075>077-085>089-095>099-242100-
   SOUTHEAST IOWA

CITY           SKY/WX    TMP DP  RH WIND       PRES   REMARKS
BURLINGTON     MOSUNNY   74  45  35 W14G23    29.90R
FAIRFIELD *    CLOUDY    64  48  55 SW17G23   29.93R
FORT MADISON * CLOUDY    73  45  35 W17G25    29.93R
KEOKUK *       CLOUDY    68  48  49 W22G33    29.93R
OSKALOOSA *    RAIN      56  54  91 W7        29.93R
CENTERVILLE *  LGT RAIN  55  55 100 CALM      29.94F
OTTUMWA        LGT RAIN  60  56  86 W9        29.93R
WASHINGTON *   CLOUDY    66  48  52 SW13G18   29.92R
$$

ABBREVIATIONS USED IN REMARKS
   TC - TEMPERATURES IN CELSIUS
  WCI - WIND CHILL INDEX
   HX - HEAT INDEX
  VSB - VISIBILITY
$$





USA.gov is the U.S. government's official web portal to all federal, state and local government web resources and services.